GW3941 Weather Reports


time (UTC)temp
C
wind
direction
speed
KPH
gust
KPH
rain 1hr
cm
rain 24hr
cm
rain mn
cm
humidity
%
barometer
mb
20260506193058 14 250 3.2 14.5 0.05 0.43 0.43 95 1006.9
20260506192557 14 232 4.8 14.5 0.05 0.43 0.43 95 1006.9
20260506192100 14 285 3.2 14.5 0.05 0.43 0.43 95 1007.1
20260506191556 14 293 4.8 16.1 0.05 0.43 0.43 95 1007.1
20260506191056 14 219 4.8 16.1 0.05 0.43 0.43 95 1007.1
20260506190556 14 308 4.8 16.1 0.05 0.43 0.43 95 1007.2
20260506190058 14 218 3.2 16.1 0.08 0.43 0.43 96 1007.2
20260506185555 14 190 3.2 16.1 0.05 0.41 0.41 96 1007.3
20260506185056 14 211 4.8 17.7 0.05 0.41 0.41 95 1007.2
20260506184556 14 140 3.2 14.5 0.05 0.41 0.41 96 1007.2
20260506184053 14 211 4.8 14.5 0.05 0.41 0.41 96 1007.2
20260506183552 14 292 6.4 19.3 0.03 0.38 0.38 96 1007.2
20260506183100 14 17 4.8 19.3 0.03 0.38 0.38 96 1007.2
20260506182551 14 323 3.2 12.9 0.03 0.38 0.38 96 1007.3
20260506182051 15 300 3.2 14.5 0.03 0.38 0.38 96 1007.3
20260506181618 15 175 3.2 14.5 0.03 0.38 0.38 96 1007.3
20260506181051 15 238 4.8 14.5 0.03 0.38 0.38 96 1007.3
20260506180551 15 219 3.2 16.1 0.03 0.38 0.38 96 1007.3
20260506180050 15 205 6.4 16.1 0.00 0.36 0.36 96 1007.2
20260506175550 15 217 4.8 16.1 0.03 0.36 0.36 96 1007.4
20260506175051 15 212 3.2 17.7 0.03 0.36 0.36 96 1007.5
20260506174549 15 202 3.2 17.7 0.05 0.36 0.36 96 1007.5
20260506174048 15 180 6.4 12.9 0.05 0.36 0.36 96 1007.6
20260506173548 15 182 4.8 14.5 0.08 0.36 0.36 96 1007.5
20260506173057 15 279 4.8 14.5 0.08 0.36 0.36 95 1007.7
20260506172547 15 213 3.2 11.3 0.10 0.36 0.36 96 1007.7
20260506172049 14 183 3.2 16.1 0.10 0.36 0.36 96 1007.7
20260506171547 15 158 3.2 16.1 0.13 0.36 0.36 96 1007.7
20260506171046 15 277 3.2 11.3 0.15 0.36 0.36 96 1007.7
20260506170546 15 153 1.6 9.7 0.15 0.36 0.36 96 1007.8
20260506170048 15 252 3.2 9.7 0.18 0.36 0.36 96 1007.8
20260506165545 15 210 3.2 14.5 0.18 0.33 0.33 96 1007.8
20260506165045 14 188 4.8 14.5 0.20 0.33 0.33 96 1007.7
20260506164547 15 273 3.2 19.3 0.18 0.30 0.30 96 1007.6
20260506164044 15 256 4.8 19.3 0.20 0.30 0.30 96 1007.5
20260506163544 15 59 8.0 17.7 0.18 0.28 0.28 96 1007.7
20260506163044 15 128 1.6 9.7 0.18 0.28 0.28 96 1007.8
20260506162541 15 330 1.6 11.3 0.15 0.25 0.25 96 1008.1
20260506162041 15 163 4.8 16.1 0.18 0.25 0.25 96 1008.2
20260506161539 15 67 3.2 16.1 0.15 0.23 0.23 96 1008.4
20260506161039 15 249 3.2 14.5 0.15 0.20 0.20 96 1008.6
20260506160539 15 5 3.2 11.3 0.15 0.20 0.20 96 1008.8
20260506160041 15 276 3.2 8.0 0.13 0.18 0.18 97 1008.8
20260506155540 15 92 1.6 9.7 0.10 0.15 0.15 97 1008.8
20260506155037 15 249 1.6 12.9 0.10 0.13 0.13 97 1008.9
20260506154538 15 250 4.8 16.1 0.10 0.13 0.13 97 1009.0
20260506154035 15 301 3.2 16.1 0.10 0.10 0.10 97 1009.0
20260506153534 15 246 1.6 14.5 0.10 0.10 0.10 97 1009.1
20260506153054 15 209 1.6 14.5 0.10 0.10 0.10 97 1008.8
20260506152533 15 236 1.6 11.3 0.10 0.10 0.10 97 1008.9
20260506152032 15 296 3.2 11.3 0.08 0.08 0.08 97 1008.8
20260506151534 15 138 1.6 14.5 0.08 0.08 0.08 96 1008.8
20260506151038 15 180 3.2 9.7 0.05 0.05 0.05 96 1008.7
20260506150531 15 142 3.2 9.7 0.05 0.05 0.05 95 1008.8
20260506150033 16 238 1.6 9.7 0.05 0.05 0.05 95 1008.7
20260506145529 16 90 1.6 12.9 0.05 0.05 0.05 94 1008.7
20260506145029 16 193 1.6 12.9 0.03 0.03 0.03 93 1008.8
20260506144528 16 194 4.8 14.5 0.03 0.03 0.03 91 1009.0
20260506144027 16 219 4.8 14.5 0.00 0.00 0.00 89 1009.1
20260506143527 17 275 4.8 14.5 0.00 0.00 0.00 88 1009.0
20260506143031 17 94 3.2 16.1 0.00 0.00 0.00 88 1009.0
20260506142526 17 250 1.6 16.1 0.00 0.00 0.00 88 1008.9
20260506142026 17 199 3.2 12.9 0.00 0.00 0.00 88 1008.9
20260506141526 17 196 3.2 19.3 0.00 0.00 0.00 88 1008.9
20260506141027 17 226 3.2 19.3 0.00 0.00 0.00 88 1008.9
20260506140526 17 261 6.4 16.1 0.00 0.00 0.00 88 1008.9
20260506140026 16 240 1.6 14.5 0.00 0.00 0.00 88 1008.7
20260506135526 16 233 4.8 14.5 0.00 0.00 0.00 88 1008.8
20260506135026 16 86 1.6 14.5 0.00 0.00 0.00 88 1008.8
20260506134525 16 195 6.4 16.1 0.00 0.00 0.00 88 1008.9
20260506134025 16 99 4.8 12.9 0.00 0.00 0.00 88 1008.8
20260506133524 16 274 3.2 17.7 0.00 0.00 0.00 88 1008.9
20260506133024 16 232 6.4 17.7 0.00 0.00 0.00 88 1008.9
20260506132524 16 222 4.8 11.3 0.00 0.00 0.00 88 1009.0
20260506132024 16 192 3.2 16.1 0.00 0.00 0.00 89 1009.1
20260506131533 16 208 6.4 16.1 0.00 0.00 0.00 88 1009.2
20260506131024 16 232 4.8 16.1 0.00 0.00 0.00 88 1009.2
20260506130523 16 186 6.4 22.5 0.00 0.00 0.00 88 1009.2
20260506130024 16 238 6.4 22.5 0.00 0.00 0.00 88 1009.0
20260506125523 16 244 4.8 17.7 0.00 0.00 0.00 88 1009.1
20260506125023 16 133 3.2 14.5 0.00 0.00 0.00 88 1009.4
20260506124523 16 75 6.4 16.1 0.00 0.00 0.00 88 1009.2
20260506124023 16 232 3.2 16.1 0.00 0.00 0.00 88 1008.9
20260506123526 16 234 8.0 16.1 0.00 0.00 0.00 88 1008.7
20260506123023 16 101 4.8 16.1 0.00 0.00 0.00 88 1008.9
20260506122523 16 161 4.8 16.1 0.00 0.00 0.00 88 1008.9
20260506122024 16 156 3.2 11.3 0.00 0.00 0.00 88 1008.8
20260506121522 16 242 4.8 16.1 0.00 0.00 0.00 88 1009.0
20260506121022 16 263 4.8 20.9 0.00 0.00 0.00 88 1009.1
20260506120522 16 187 3.2 14.5 0.00 0.00 0.00 88 1009.1
20260506120022 16 74 3.2 16.1 0.00 0.00 0.00 89 1009.0
20260506115523 16 182 3.2 16.1 0.00 0.00 0.00 88 1009.0
20260506115021 16 88 6.4 14.5 0.00 0.00 0.00 89 1009.0
20260506114527 16 229 4.8 14.5 0.00 0.00 0.00 89 1009.0
20260506114021 16 230 4.8 12.9 0.00 0.00 0.00 89 1009.1
20260506113520 16 125 6.4 14.5 0.00 0.00 0.00 89 1009.3
20260506113033 16 234 4.8 14.5 0.00 0.00 0.00 89 1009.2
20260506112519 16 175 1.6 14.5 0.00 0.00 0.00 89 1009.2
20260506112019 16 233 3.2 14.5 0.00 0.00 0.00 89 1009.1
20260506111519 16 241 1.6 11.3 0.00 0.00 0.00 89 1009.0
20260506111019 16 113 4.8 11.3 0.00 0.00 0.00 89 1009.1
20260506110519 16 207 3.2 9.7 0.00 0.00 0.00 89 1009.1
20260506110019 16 132 4.8 12.9 0.00 0.00 0.00 90 1009.0
20260506105519 16 201 6.4 12.9 0.00 0.00 0.00 90 1009.0
20260506105019 16 219 3.2 17.7 0.00 0.00 0.00 90 1008.8
20260506104519 16 319 6.4 17.7 0.00 0.00 0.00 90 1008.7
20260506104018 16 42 4.8 14.5 0.00 0.00 0.00 90 1008.8
20260506103517 16 74 3.2 14.5 0.00 0.00 0.00 90 1008.7
20260506103017 16 65 4.8 14.5 0.00 0.00 0.00 90 1008.7
20260506102516 16 209 1.6 12.9 0.00 0.00 0.00 90 1008.8
20260506102017 16 214 4.8 14.5 0.00 0.00 0.00 90 1008.7
20260506101516 16 158 3.2 14.5 0.00 0.00 0.00 90 1008.7
20260506101016 16 76 1.6 8.0 0.00 0.00 0.00 90 1008.8
20260506100515 16 257 1.6 9.7 0.00 0.00 0.00 90 1008.8
20260506100015 16 168 3.2 12.9 0.00 0.00 0.00 90 1008.7
20260506095515 16 209 4.8 14.5 0.00 0.03 0.00 90 1008.6
20260506095015 16 137 3.2 14.5 0.00 0.03 0.00 90 1008.6
20260506094514 16 189 6.4 14.5 0.00 0.03 0.00 90 1008.6
20260506094014 16 159 3.2 11.3 0.00 0.03 0.00 90 1008.7
20260506093514 16 338 1.6 6.4 0.00 0.03 0.00 90 1008.6
20260506093014 16 96 1.6 11.3 0.00 0.03 0.00 90 1008.6
20260506092515 16 96 4.8 12.9 0.00 0.03 0.00 90 1008.6
20260506092013 16 83 3.2 12.9 0.00 0.03 0.00 89 1008.6
20260506091513 16 187 4.8 19.3 0.00 0.03 0.00 90 1008.7
20260506091012 16 273 3.2 12.9 0.00 0.03 0.00 90 1008.8
20260506090511 16 209 3.2 14.5 0.00 0.03 0.00 90 1008.7
20260506090015 16 59 4.8 14.5 0.00 0.03 0.00 90 1008.8
20260506085510 16 349 3.2 14.5 0.00 0.03 0.00 90 1008.9
20260506085011 16 213 3.2 11.3 0.00 0.03 0.00 90 1008.9
20260506084510 16 259 3.2 11.3 0.00 0.03 0.00 90 1008.9
20260506084012 16 284 1.6 12.9 0.00 0.03 0.00 89 1008.8
20260506083510 16 69 4.8 12.9 0.00 0.03 0.00 90 1008.9
20260506083009 16 183 3.2 11.3 0.00 0.03 0.00 90 1008.9
20260506082509 16 250 3.2 14.5 0.00 0.03 0.00 89 1008.9
20260506082010 16 134 1.6 14.5 0.00 0.03 0.00 89 1008.8
20260506081508 16 44 1.6 9.7 0.00 0.03 0.00 89 1008.8
20260506081010 16 176 3.2 12.9 0.00 0.03 0.00 89 1008.9
20260506080508 16 208 4.8 12.9 0.00 0.03 0.00 88 1008.9
20260506073504 16 159 3.2 11.3 0.00 0.03 0.00 86 1009.0
20260506073003 16 255 3.2 11.3 0.00 0.03 0.00 86 1009.1
20260506072503 16 261 3.2 11.3 0.00 0.03 0.00 85 1009.2
20260506072002 16 127 0.0 14.5 0.00 0.03 0.00 85 1009.1
20260506071502 16 189 1.6 14.5 0.00 0.03 0.00 84 1009.2
20260506071001 16 219 1.6 9.7 0.00 0.03 0.00 84 1009.2
20260506070501 17 275 4.8 9.7 0.00 0.03 0.00 84 1009.2
20260506070105 17 150 3.2 16.1 0.00 0.03 0.00 83 1009.2
20260506062054 17 273 1.6 6.4 0.00 0.03 0.00 80 1009.5
20260506061554 17 286 3.2 6.4 0.00 0.03 0.00 80 1009.6
20260506061054 17 257 1.6 6.4 0.00 0.03 0.00 80 1009.6
20260506060553 17 155 1.6 16.1 0.00 0.03 0.00 80 1009.7
20260506051048 18 133 4.8 14.5 0.00 0.03 0.00 77 1009.9
20260506050548 18 261 4.8 11.3 0.00 0.03 0.00 77 1009.9
20260506045047 18 182 1.6 14.5 0.00 0.03 0.00 77 1010.0
20260506044546 18 300 1.6 14.5 0.00 0.03 0.00 77 1010.1
20260506044045 18 250 4.8 14.5 0.00 0.03 0.00 77 1010.2
20260506043544 18 148 1.6 11.3 0.00 0.03 0.00 77 1010.3
20260506043046 17 212 3.2 11.3 0.00 0.03 0.00 77 1010.1
20260506042646 18 195 3.2 9.7 0.00 0.03 0.00 77 1010.0
20260506042044 18 200 1.6 11.3 0.00 0.03 0.00 77 1010.1
20260506041542 18 332 1.6 11.3 0.00 0.03 0.00 76 1010.1
20260506041041 18 273 3.2 11.3 0.00 0.03 0.00 76 1010.1
20260506040541 18 293 3.2 11.3 0.00 0.03 0.00 76 1010.1
20260506040041 18 259 3.2 9.7 0.00 0.03 0.00 76 1010.1
20260506035540 18 82 3.2 17.7 0.00 0.03 0.03 76 1010.1
20260506035042 18 159 3.2 17.7 0.00 0.03 0.03 76 1010.1
20260506034557 18 306 4.8 12.9 0.00 0.03 0.03 76 1010.1
20260506034038 18 250 3.2 12.9 0.00 0.03 0.03 76 1010.1
20260506033538 18 105 4.8 11.3 0.00 0.03 0.03 75 1010.0
20260506033038 18 193 1.6 12.9 0.00 0.03 0.03 75 1010.1
20260506032544 18 238 4.8 12.9 0.00 0.03 0.03 75 1010.0
20260506032038 18 175 4.8 14.5 0.00 0.03 0.03 74 1010.0
20260506031539 18 210 3.2 14.5 0.00 0.03 0.03 74 1010.0
20260506031038 18 111 3.2 8.0 0.00 0.03 0.03 73 1010.0
20260506030539 18 115 1.6 16.1 0.00 0.03 0.03 73 1010.0
20260506030041 18 190 1.6 16.1 0.00 0.03 0.03 72 1010.1
20260506025538 18 186 4.8 16.1 0.00 0.03 0.03 71 1010.0
20260506025038 19 305 1.6 12.9 0.00 0.03 0.03 70 1010.1
20260506024556 19 5 1.6 8.0 0.00 0.03 0.03 69 1010.0
20260506024037 19 72 3.2 8.0 0.00 0.03 0.03 68 1010.0
20260506023537 20 186 1.6 11.3 0.00 0.03 0.03 68 1010.1
20260506023037 20 192 4.8 14.5 0.00 0.03 0.03 67 1010.0
20260506022539 20 241 3.2 14.5 0.00 0.03 0.03 66 1010.0
20260506022036 20 159 3.2 12.9 0.00 0.03 0.03 65 1010.0
20260506021537 20 212 4.8 12.9 0.00 0.03 0.03 64 1009.9
20260506021036 20 96 3.2 11.3 0.00 0.03 0.03 64 1010.0
20260506020536 20 87 3.2 11.3 0.00 0.03 0.03 64 1010.0
20260506020036 20 204 3.2 11.3 0.00 0.03 0.03 63 1009.9
20260506015536 20 148 3.2 11.3 0.00 0.03 0.03 63 1009.9
20260506015036 20 319 4.8 17.7 0.00 0.03 0.03 63 1009.9
20260506014536 21 271 3.2 17.7 0.00 0.03 0.03 62 1009.9
20260506014038 21 329 3.2 19.3 0.00 0.03 0.03 62 1009.8
20260506013537 21 114 4.8 19.3 0.00 0.03 0.03 63 1009.7
20260506013044 21 75 3.2 14.5 0.00 0.03 0.03 62 1009.6
20260506012535 21 211 3.2 22.5 0.00 0.03 0.03 62 1009.6
20260506012034 21 63 3.2 14.5 0.00 0.03 0.03 62 1009.6
20260506011535 21 148 3.2 11.3 0.00 0.03 0.03 62 1009.6
20260506011034 21 215 4.8 16.1 0.00 0.03 0.03 62 1009.4
20260506010534 21 168 6.4 16.1 0.00 0.03 0.03 62 1009.4
20260506010034 21 207 4.8 14.5 0.00 0.03 0.03 62 1009.3
20260506005534 21 207 4.8 14.5 0.00 0.03 0.03 61 1009.2
20260506005036 21 136 3.2 11.3 0.00 0.03 0.03 61 1009.2
20260506004534 21 327 3.2 14.5 0.00 0.03 0.03 61 1009.1
20260506004034 21 273 6.4 14.5 0.00 0.03 0.03 61 1009.1
20260506003533 21 203 4.8 12.9 0.00 0.03 0.03 60 1009.1
20260506003035 21 230 3.2 9.7 0.00 0.03 0.03 59 1009.0
20260506002532 21 130 1.6 9.7 0.00 0.03 0.03 59 1009.0
20260506002032 22 134 4.8 11.3 0.00 0.03 0.03 58 1008.8
20260506001537 22 202 1.6 14.5 0.00 0.03 0.03 57 1008.9
20260506001033 22 284 3.2 12.9 0.00 0.03 0.03 57 1008.9
20260506000531 22 245 1.6 12.9 0.00 0.03 0.03 55 1008.9
20260506000033 22 227 3.2 12.9 0.00 0.03 0.03 54 1008.8
20260505235533 22 248 4.8 12.9 0.00 0.03 0.03 54 1008.7
20260505235031 23 238 3.2 12.9 0.00 0.03 0.03 53 1008.7
20260505234631 23 224 4.8 22.5 0.00 0.03 0.03 53 1008.6
20260505234030 23 239 4.8 22.5 0.00 0.03 0.03 53 1008.7
20260505233531 23 242 4.8 14.5 0.00 0.03 0.03 52 1008.6
20260505233029 23 246 6.4 16.1 0.00 0.03 0.03 52 1008.6
20260505232529 23 198 6.4 24.1 0.00 0.03 0.03 52 1008.6
20260505232030 23 182 6.4 24.1 0.00 0.03 0.03 51 1008.5
20260505231532 23 360 6.4 16.1 0.00 0.03 0.03 51 1008.6
20260505231032 23 264 3.2 19.3 0.00 0.03 0.03 51 1008.6
20260505230529 23 223 3.2 17.7 0.00 0.03 0.03 51 1008.5
20260505230048 24 180 8.0 19.3 0.00 0.03 0.03 50 1008.4
20260505225529 24 134 8.0 17.7 0.00 0.03 0.03 50 1008.3
20260505225029 24 262 9.7 29.0 0.00 0.03 0.03 50 1008.4
20260505224529 24 91 11.3 29.0 0.00 0.03 0.03 49 1008.3
20260505224027 24 215 4.8 20.9 0.00 0.03 0.03 50 1008.2
20260505223527 24 46 6.4 22.5 0.00 0.03 0.03 50 1008.1
20260505223029 24 79 4.8 22.5 0.00 0.03 0.03 49 1008.1
20260505222529 24 196 4.8 19.3 0.00 0.03 0.03 49 1008.1
20260505222027 24 178 8.0 19.3 0.00 0.03 0.03 48 1008.1
20260505221533 24 116 4.8 27.4 0.00 0.03 0.03 48 1008.2
20260505221026 25 251 6.4 27.4 0.00 0.03 0.03 47 1008.2
20260505220525 25 360 6.4 16.1 0.00 0.03 0.03 47 1008.2
20260505220025 24 240 4.8 22.5 0.00 0.03 0.03 47 1008.3
20260505215527 24 226 4.8 30.6 0.00 0.03 0.03 47 1008.2
20260505215025 24 214 9.7 30.6 0.00 0.03 0.03 47 1008.4
20260505214526 24 200 8.0 29.0 0.00 0.03 0.03 47 1008.1
20260505214025 24 227 6.4 20.9 0.00 0.03 0.03 46 1008.1
20260505213523 24 237 9.7 19.3 0.00 0.03 0.03 46 1008.0
20260505213026 25 268 6.4 20.9 0.00 0.03 0.03 47 1008.1
20260505212526 25 237 11.3 22.5 0.00 0.03 0.03 46 1008.0
20260505212022 25 263 6.4 22.5 0.00 0.03 0.03 47 1008.0
20260505211522 25 241 9.7 22.5 0.00 0.03 0.03 46 1007.9
20260505211022 25 240 4.8 32.2 0.00 0.03 0.03 46 1007.8
20260505210522 25 116 8.0 32.2 0.00 0.03 0.03 46 1007.7
20260505210022 25 244 9.7 25.7 0.00 0.03 0.03 45 1007.7
20260505205522 25 217 9.7 29.0 0.00 0.03 0.03 44 1007.6
20260505205022 26 238 11.3 29.0 0.00 0.03 0.03 44 1007.8
20260505204521 26 203 9.7 22.5 0.00 0.03 0.03 44 1007.7
20260505204024 26 225 1.6 19.3 0.00 0.03 0.03 45 1007.8
20260505203520 26 229 8.0 20.9 0.00 0.03 0.03 43 1007.9
20260505203025 26 153 8.0 29.0 0.00 0.03 0.03 42 1007.9
20260505202520 26 209 11.3 29.0 0.00 0.03 0.03 42 1007.9
20260505202020 26 233 6.4 22.5 0.00 0.03 0.03 43 1007.8
20260505201519 27 254 9.7 22.5 0.00 0.03 0.03 44 1007.9
20260505201019 26 242 8.0 24.1 0.00 0.03 0.03 45 1007.9
20260505200521 27 173 8.0 16.1 0.00 0.03 0.03 45 1007.9
20260505200030 27 259 6.4 16.1 0.00 0.03 0.03 44 1008.0
20260505195518 26 259 6.4 29.0 0.00 0.03 0.03 45 1008.0
20260505195018 26 223 9.7 29.0 0.00 0.03 0.03 45 1007.8
20260505194518 26 317 11.3 30.6 0.00 0.03 0.03 44 1007.9
20260505194017 27 212 9.7 30.6 0.00 0.03 0.03 45 1007.9
20260505193517 27 210 3.2 20.9 0.00 0.03 0.03 48 1008.1